TimePDT,TemperatureF,Dew PointF,Humidity,Sea Level PressureIn,VisibilityMPH,Wind Direction,Wind SpeedMPH,Gust SpeedMPH,PrecipitationIn,Events,Conditions,WindDirDegrees,DateUTC
12:52 AM,52.0,39.9,63,30.00,-9999.0,ENE,5.8,-,N/A,,Unknown,60,2012-10-04 07:52:00
1:52 AM,50.0,39.9,68,30.01,-9999.0,NE,5.8,-,N/A,,Unknown,40,2012-10-04 08:52:00
2:52 AM,48.9,39.0,69,30.00,-9999.0,NE,8.1,-,N/A,,Unknown,50,2012-10-04 09:52:00
3:52 AM,46.9,37.0,68,29.99,-9999.0,NE,3.5,-,N/A,,Unknown,40,2012-10-04 10:52:00
4:52 AM,45.0,36.0,71,30.00,-9999.0,ENE,6.9,-,N/A,,Unknown,60,2012-10-04 11:52:00
5:52 AM,46.0,36.0,68,30.02,-9999.0,NE,4.6,-,N/A,,Unknown,50,2012-10-04 12:52:00
6:52 AM,46.0,34.0,63,30.04,-9999.0,NE,6.9,-,N/A,,Unknown,50,2012-10-04 13:52:00
7:52 AM,51.1,36.0,56,30.05,-9999.0,ENE,4.6,-,N/A,,Unknown,60,2012-10-04 14:52:00
8:52 AM,66.0,37.9,36,30.05,-9999.0,Calm,Calm,-,N/A,,Unknown,0,2012-10-04 15:52:00
9:52 AM,75.0,35.1,23,30.04,-9999.0,SSW,11.5,-,N/A,,Unknown,210,2012-10-04 16:52:00
10:52 AM,78.1,33.1,19,30.04,-9999.0,SSW,12.7,-,N/A,,Unknown,210,2012-10-04 17:52:00
11:52 AM,81.0,32.0,17,30.04,-9999.0,SW,13.8,20.7,N/A,,Unknown,220,2012-10-04 18:52:00
12:52 PM,82.9,32.0,16,30.02,-9999.0,SW,15.0,-,N/A,,Unknown,220,2012-10-04 19:52:00
1:52 PM,82.9,35.1,18,30.00,-9999.0,SW,15.0,21.9,N/A,,Unknown,220,2012-10-04 20:52:00
2:52 PM,82.0,39.9,22,29.99,-9999.0,SW,16.1,-,N/A,,Unknown,220,2012-10-04 21:52:00
3:52 PM,81.0,45.0,28,29.99,-9999.0,WSW,13.8,23.0,N/A,,Unknown,240,2012-10-04 22:52:00
4:52 PM,79.0,45.0,30,29.99,-9999.0,SSW,15.0,-,N/A,,Unknown,210,2012-10-04 23:52:00
5:52 PM,75.0,46.9,37,30.00,-9999.0,WSW,11.5,-,N/A,,Unknown,240,2012-10-05 00:52:00
6:52 PM,66.9,48.0,51,30.02,-9999.0,Calm,Calm,-,N/A,,Unknown,0,2012-10-05 01:52:00
7:52 PM,62.1,46.0,56,30.03,-9999.0,Calm,Calm,-,N/A,,Unknown,0,2012-10-05 02:52:00
8:52 PM,57.0,45.0,64,30.02,-9999.0,NNE,3.5,-,N/A,,Unknown,20,2012-10-05 03:52:00
9:52 PM,51.1,42.1,71,30.03,-9999.0,NNE,3.5,-,N/A,,Unknown,20,2012-10-05 04:52:00
10:52 PM,52.0,43.0,71,30.02,-9999.0,NE,5.8,-,N/A,,Unknown,50,2012-10-05 05:52:00
11:52 PM,48.9,41.0,74,30.02,-9999.0,NNE,3.5,-,N/A,,Unknown,30,2012-10-05 06:52:00